📊 Raw Sensor Data
Showing records 50876 to 50900 of 85,140 total
| ID | Distance (ft) | Battery V | Battery A | Int Temp (°F) | Int Humid (%) | Ext Temp (°F) | Solar V | RSSI | SNR | Time Stamp |
|---|---|---|---|---|---|---|---|---|---|---|
| 34277 | 15.0 | 3.95 | -5 | 37 | 38 | 39 | 0.00 | -76 | 8 | 03/07/2025 01:30 AM |
| 34276 | 15.2 | 3.95 | -5 | 37 | 39 | 38 | 0.00 | -76 | 8 | 03/07/2025 01:15 AM |
| 34275 | 15.1 | 3.95 | -5 | 38 | 39 | 40 | 0.00 | -76 | 8 | 03/07/2025 01:00 AM |
| 34274 | 15.1 | 3.95 | -5 | 38 | 39 | 40 | 0.00 | -75 | 8 | 03/07/2025 12:45 AM |
| 34273 | 15.1 | 4.01 | -5 | 39 | 38 | 39 | 0.00 | -76 | 8 | 03/07/2025 12:30 AM |
| 34272 | 15.1 | 4.01 | -5 | 40 | 38 | 43 | 0.10 | -76 | 8 | 03/07/2025 12:15 AM |
| 34271 | 15.1 | 3.95 | -5 | 40 | 38 | 42 | 0.00 | -75 | 8 | 03/07/2025 12:00 AM |
| 34270 | 15.0 | 3.95 | -5 | 40 | 38 | 43 | 0.00 | -76 | 8 | 03/06/2025 11:45 PM |
| 34269 | 15.0 | 3.96 | -5 | 40 | 38 | 43 | 0.00 | -76 | 8 | 03/06/2025 11:30 PM |
| 34268 | 15.1 | 4.01 | -5 | 41 | 38 | 43 | 0.10 | -76 | 8 | 03/06/2025 11:15 PM |
| 34267 | 15.1 | 4.01 | -5 | 40 | 38 | 44 | 0.00 | -76 | 8 | 03/06/2025 11:00 PM |
| 34266 | 15.0 | 3.96 | -5 | 40 | 38 | 43 | 0.00 | -75 | 8 | 03/06/2025 10:45 PM |
| 34265 | 15.0 | 3.96 | -5 | 40 | 38 | 43 | 0.10 | -76 | 8 | 03/06/2025 10:30 PM |
| 34264 | 15.1 | 3.96 | -5 | 40 | 39 | 44 | 0.00 | -76 | 8 | 03/06/2025 10:15 PM |
| 34263 | 15.1 | 4.02 | -5 | 40 | 39 | 42 | 0.00 | -76 | 8 | 03/06/2025 10:00 PM |
| 34262 | 15.1 | 4.02 | -5 | 41 | 39 | 45 | 0.00 | -76 | 8 | 03/06/2025 09:45 PM |
| 34261 | 15.0 | 3.96 | -5 | 40 | 39 | 43 | 0.00 | -76 | 8 | 03/06/2025 09:30 PM |
| 34260 | 15.0 | 3.96 | -5 | 40 | 39 | 44 | 0.00 | -76 | 8 | 03/06/2025 09:15 PM |
| 34259 | 15.1 | 3.96 | -5 | 41 | 39 | 43 | 0.00 | -76 | 8 | 03/06/2025 09:00 PM |
| 34258 | 15.1 | 4.02 | -5 | 42 | 39 | 43 | 0.10 | -77 | 7 | 03/06/2025 08:45 PM |
| 34257 | 15.1 | 3.96 | -5 | 42 | 40 | 43 | 0.00 | -77 | 7 | 03/06/2025 08:30 PM |
| 34256 | -- | 3.97 | -5 | 43 | 40 | 46 | 0.00 | -77 | 8 | 03/06/2025 08:15 PM |
| 34255 | 15.1 | 4.03 | -5 | 43 | 41 | 46 | 0.00 | -77 | 8 | 03/06/2025 08:00 PM |
| 34254 | 15.0 | 3.97 | -5 | 44 | 41 | 46 | 0.00 | -77 | 8 | 03/06/2025 07:45 PM |
| 34253 | 15.1 | 3.97 | -5 | 44 | 42 | 47 | 0.00 | -77 | 8 | 03/06/2025 07:30 PM |